Year,Month,Day,Hour,Minute,Value (Times are PST for temperature in C)
2014,02,11,00,00,7.10
2014,02,11,00,01,7.20
2014,02,11,00,02,7.20
2014,02,11,00,03,7.20
2014,02,11,00,04,7.10
2014,02,11,00,05,7.10
2014,02,11,00,06,7.00
2014,02,11,00,07,7.00
2014,02,11,00,08,7.00
2014,02,11,00,09,7.00
2014,02,11,00,10,7.00
2014,02,11,00,11,7.00
2014,02,11,00,12,7.00
2014,02,11,00,13,6.90
2014,02,11,00,14,6.90
2014,02,11,00,15,6.80
2014,02,11,00,16,6.80
2014,02,11,00,17,6.80
2014,02,11,00,18,6.90
2014,02,11,00,19,6.90
2014,02,11,00,20,7.00
2014,02,11,00,21,7.00
2014,02,11,00,22,7.10
2014,02,11,00,23,7.10
2014,02,11,00,24,7.10
2014,02,11,00,25,7.20
2014,02,11,00,26,7.20
2014,02,11,00,27,7.20
2014,02,11,00,28,7.20
2014,02,11,00,29,7.20
2014,02,11,00,30,7.20
2014,02,11,00,31,7.10
2014,02,11,00,32,7.10
2014,02,11,00,33,7.00
2014,02,11,00,34,6.90
2014,02,11,00,35,6.90
2014,02,11,00,36,6.90
2014,02,11,00,37,6.90
2014,02,11,00,38,6.90
2014,02,11,00,39,7.00
2014,02,11,00,40,7.00
2014,02,11,00,41,7.10
2014,02,11,00,42,7.20
2014,02,11,00,43,7.20
2014,02,11,00,44,7.20
2014,02,11,00,45,7.20
2014,02,11,00,46,7.30
2014,02,11,00,47,7.30
2014,02,11,00,48,7.30
2014,02,11,00,49,7.40
2014,02,11,00,50,7.40
2014,02,11,00,51,7.40
2014,02,11,00,52,7.50
2014,02,11,00,53,7.50
2014,02,11,00,54,7.60
2014,02,11,00,55,7.60
2014,02,11,00,56,7.70
2014,02,11,00,57,7.70
2014,02,11,00,58,7.70
2014,02,11,00,59,7.70
2014,02,11,01,00,7.80
2014,02,11,01,01,7.80
2014,02,11,01,02,7.80
2014,02,11,01,03,7.90
2014,02,11,01,04,7.90
2014,02,11,01,05,7.90
2014,02,11,01,06,7.80
2014,02,11,01,07,7.80
2014,02,11,01,08,7.70
2014,02,11,01,09,7.60
2014,02,11,01,10,7.50
2014,02,11,01,11,7.50
2014,02,11,01,12,7.40
2014,02,11,01,13,7.40
2014,02,11,01,14,7.30
2014,02,11,01,15,7.30
2014,02,11,01,16,7.30
2014,02,11,01,17,7.40
2014,02,11,01,18,7.40
2014,02,11,01,19,7.40
2014,02,11,01,20,7.40
2014,02,11,01,21,7.30
2014,02,11,01,22,7.30
2014,02,11,01,23,7.30
2014,02,11,01,24,7.30
2014,02,11,01,25,7.20
2014,02,11,01,26,7.30
2014,02,11,01,27,7.30
2014,02,11,01,28,7.30
2014,02,11,01,29,7.30
2014,02,11,01,30,7.30
2014,02,11,01,31,7.40
2014,02,11,01,32,7.40
2014,02,11,01,33,7.40
2014,02,11,01,34,7.40
2014,02,11,01,35,7.40
2014,02,11,01,36,7.50
2014,02,11,01,37,7.50
2014,02,11,01,38,7.50
2014,02,11,01,39,7.50
2014,02,11,01,40,7.50
2014,02,11,01,41,7.50
2014,02,11,01,42,7.40
2014,02,11,01,43,7.40
2014,02,11,01,44,7.40
2014,02,11,01,45,7.30
2014,02,11,01,46,7.30
2014,02,11,01,47,7.30
2014,02,11,01,48,7.30
2014,02,11,01,49,7.30
2014,02,11,01,50,7.40
2014,02,11,01,51,7.30
2014,02,11,01,52,7.30
2014,02,11,01,53,7.30
2014,02,11,01,54,7.20
2014,02,11,01,55,7.20
2014,02,11,01,56,7.10
2014,02,11,01,57,7.00
2014,02,11,01,58,6.90
2014,02,11,01,59,6.80
2014,02,11,02,00,6.70
2014,02,11,02,01,6.60
2014,02,11,02,02,6.50
2014,02,11,02,03,6.40
2014,02,11,02,04,6.40
2014,02,11,02,05,6.50
2014,02,11,02,06,6.40
2014,02,11,02,07,6.40
2014,02,11,02,08,6.30
2014,02,11,02,09,6.30
2014,02,11,02,10,6.20
2014,02,11,02,11,6.10
2014,02,11,02,12,6.00
2014,02,11,02,13,5.90
2014,02,11,02,14,5.80
2014,02,11,02,15,5.70
2014,02,11,02,16,5.60
2014,02,11,02,17,5.50
2014,02,11,02,18,5.40
2014,02,11,02,19,5.30
2014,02,11,02,20,5.20
2014,02,11,02,21,5.10
2014,02,11,02,22,5.10
2014,02,11,02,23,5.00
2014,02,11,02,24,5.00
2014,02,11,02,25,4.90
2014,02,11,02,26,4.90
2014,02,11,02,27,4.80
2014,02,11,02,28,4.80
2014,02,11,02,29,4.80
2014,02,11,02,30,4.70
2014,02,11,02,31,4.70
2014,02,11,02,32,4.70
2014,02,11,02,33,4.80
2014,02,11,02,34,4.80
2014,02,11,02,35,4.80
2014,02,11,02,36,4.80
2014,02,11,02,37,4.80
2014,02,11,02,38,4.80
2014,02,11,02,39,4.70
2014,02,11,02,40,4.70
2014,02,11,02,41,4.70
2014,02,11,02,42,4.60
2014,02,11,02,43,4.60
2014,02,11,02,44,4.50
2014,02,11,02,45,4.50
2014,02,11,02,46,4.60
2014,02,11,02,47,4.60
2014,02,11,02,48,4.70
2014,02,11,02,49,4.70
2014,02,11,02,50,4.80
2014,02,11,02,51,4.80
2014,02,11,02,52,4.80
2014,02,11,02,53,4.80
2014,02,11,02,54,4.80
2014,02,11,02,55,4.80
2014,02,11,02,56,4.80
2014,02,11,02,57,4.90
2014,02,11,02,58,4.90
2014,02,11,02,59,4.90
2014,02,11,03,00,4.90
2014,02,11,03,01,5.00
2014,02,11,03,02,5.00
2014,02,11,03,03,5.10
2014,02,11,03,04,5.10
2014,02,11,03,05,5.20
2014,02,11,03,06,5.20
2014,02,11,03,07,5.20
2014,02,11,03,08,5.20
2014,02,11,03,09,5.20
2014,02,11,03,10,5.20
2014,02,11,03,11,5.20
2014,02,11,03,12,5.20
2014,02,11,03,13,5.20
2014,02,11,03,14,5.20
2014,02,11,03,15,5.20
2014,02,11,03,16,5.20
2014,02,11,03,17,5.30
2014,02,11,03,18,5.30
2014,02,11,03,19,5.40
2014,02,11,03,20,5.50
2014,02,11,03,21,5.60
2014,02,11,03,22,5.60
2014,02,11,03,23,5.70
2014,02,11,03,24,5.60
2014,02,11,03,25,5.60
2014,02,11,03,26,5.60
2014,02,11,03,27,5.60
2014,02,11,03,28,5.70
2014,02,11,03,29,5.70
2014,02,11,03,30,5.70
2014,02,11,03,31,5.70
2014,02,11,03,32,5.60
2014,02,11,03,33,5.50
2014,02,11,03,34,5.40
2014,02,11,03,35,5.30
2014,02,11,03,36,5.20
2014,02,11,03,37,5.10
2014,02,11,03,38,5.10
2014,02,11,03,39,5.10
2014,02,11,03,40,5.10
2014,02,11,03,41,5.10
2014,02,11,03,42,5.10
2014,02,11,03,43,5.10
2014,02,11,03,44,5.10
2014,02,11,03,45,5.10
2014,02,11,03,46,5.00
2014,02,11,03,47,4.90
2014,02,11,03,48,4.80
2014,02,11,03,49,4.80
2014,02,11,03,50,4.70
2014,02,11,03,51,4.60
2014,02,11,03,52,4.50
2014,02,11,03,53,4.40
2014,02,11,03,54,4.40
2014,02,11,03,55,4.40
2014,02,11,03,56,4.40
2014,02,11,03,57,4.40
2014,02,11,03,58,4.30
2014,02,11,03,59,4.10
2014,02,11,04,00,4.00
2014,02,11,04,01,3.80
2014,02,11,04,02,3.80
2014,02,11,04,03,3.80
2014,02,11,04,04,3.90
2014,02,11,04,05,3.90
2014,02,11,04,06,3.80
2014,02,11,04,07,3.70
2014,02,11,04,08,3.60
2014,02,11,04,09,3.40
2014,02,11,04,10,3.20
2014,02,11,04,11,3.10
2014,02,11,04,12,3.10
2014,02,11,04,13,3.10
2014,02,11,04,14,3.00
2014,02,11,04,15,2.90
2014,02,11,04,16,2.90
2014,02,11,04,17,2.80
2014,02,11,04,18,2.70
2014,02,11,04,19,2.60
2014,02,11,04,20,2.50
2014,02,11,04,21,2.40
2014,02,11,04,22,2.30
2014,02,11,04,23,2.30
2014,02,11,04,24,2.20
2014,02,11,04,25,2.10
2014,02,11,04,26,2.00
2014,02,11,04,27,2.00
2014,02,11,04,28,1.90
2014,02,11,04,29,1.90
2014,02,11,04,30,1.90
2014,02,11,04,31,1.90
2014,02,11,04,32,1.80
2014,02,11,04,33,1.90
2014,02,11,04,34,1.90
2014,02,11,04,35,1.90
2014,02,11,04,36,1.90
2014,02,11,04,37,1.90
2014,02,11,04,38,2.00
2014,02,11,04,39,2.00
2014,02,11,04,40,2.00
2014,02,11,04,41,2.10
2014,02,11,04,42,2.20
2014,02,11,04,43,2.30
2014,02,11,04,44,2.40
2014,02,11,04,45,2.40
2014,02,11,04,46,2.40
2014,02,11,04,47,2.40
2014,02,11,04,48,2.30
2014,02,11,04,49,2.30
2014,02,11,04,50,2.30
2014,02,11,04,51,2.20
2014,02,11,04,52,2.20
2014,02,11,04,53,2.20
2014,02,11,04,54,2.10
2014,02,11,04,55,2.10
2014,02,11,04,56,2.10
2014,02,11,04,57,2.20
2014,02,11,04,58,2.20
2014,02,11,04,59,2.20
2014,02,11,05,00,2.20
2014,02,11,05,01,2.10
2014,02,11,05,02,2.10
2014,02,11,05,03,2.00
2014,02,11,05,04,1.90
2014,02,11,05,05,1.80
2014,02,11,05,06,1.80
2014,02,11,05,07,1.70
2014,02,11,05,08,1.60
2014,02,11,05,09,1.50
2014,02,11,05,10,1.50
2014,02,11,05,11,1.40
2014,02,11,05,12,1.40
2014,02,11,05,13,1.30
2014,02,11,05,14,1.30
2014,02,11,05,15,1.30
2014,02,11,05,16,1.30
2014,02,11,05,17,1.30
2014,02,11,05,18,1.30
2014,02,11,05,19,1.40
2014,02,11,05,20,1.50
2014,02,11,05,21,1.60
2014,02,11,05,22,1.60
2014,02,11,05,23,1.80
2014,02,11,05,24,1.90
2014,02,11,05,25,2.10
2014,02,11,05,26,2.30
2014,02,11,05,27,2.60
2014,02,11,05,28,2.90
2014,02,11,05,29,3.10
2014,02,11,05,30,3.10
2014,02,11,05,31,3.00
2014,02,11,05,32,3.00
2014,02,11,05,33,3.10
2014,02,11,05,34,3.00
2014,02,11,05,35,2.90
2014,02,11,05,36,2.80
2014,02,11,05,37,2.60
2014,02,11,05,38,2.60
2014,02,11,05,39,2.50
2014,02,11,05,40,2.50
2014,02,11,05,41,2.40
2014,02,11,05,42,2.40
2014,02,11,05,43,2.50
2014,02,11,05,44,2.60
2014,02,11,05,45,2.70
2014,02,11,05,46,2.80
2014,02,11,05,47,2.80
2014,02,11,05,48,2.90
2014,02,11,05,49,2.90
2014,02,11,05,50,3.00
2014,02,11,05,51,3.00
2014,02,11,05,52,3.10
2014,02,11,05,53,2.90
2014,02,11,05,54,2.70
2014,02,11,05,55,2.50
2014,02,11,05,56,2.30
2014,02,11,05,57,2.40
2014,02,11,05,58,2.60
2014,02,11,05,59,2.80
2014,02,11,06,00,2.90
2014,02,11,06,01,2.80
2014,02,11,06,02,2.70
2014,02,11,06,03,2.50
2014,02,11,06,04,2.50
2014,02,11,06,05,2.40
2014,02,11,06,06,2.30
2014,02,11,06,07,2.30
2014,02,11,06,08,2.20
2014,02,11,06,09,2.10
2014,02,11,06,10,2.00
2014,02,11,06,11,1.90
2014,02,11,06,12,1.80
2014,02,11,06,13,1.70
2014,02,11,06,14,1.60
2014,02,11,06,15,1.60
2014,02,11,06,16,1.70
2014,02,11,06,17,1.90
2014,02,11,06,18,2.00
2014,02,11,06,19,2.00
2014,02,11,06,20,1.90
2014,02,11,06,21,1.90
2014,02,11,06,22,1.80
2014,02,11,06,23,1.70
2014,02,11,06,24,1.60
2014,02,11,06,25,1.50
2014,02,11,06,26,1.40
2014,02,11,06,27,1.30
2014,02,11,06,28,1.30
2014,02,11,06,29,1.30
2014,02,11,06,30,1.30
2014,02,11,06,31,1.50
2014,02,11,06,32,1.60
2014,02,11,06,33,1.70
2014,02,11,06,34,1.80
2014,02,11,06,35,1.80
2014,02,11,06,36,1.70
2014,02,11,06,37,1.70
2014,02,11,06,38,1.70
2014,02,11,06,39,1.80
2014,02,11,06,40,1.80
2014,02,11,06,41,1.90
2014,02,11,06,42,1.90
2014,02,11,06,43,1.80
2014,02,11,06,44,1.80
2014,02,11,06,45,1.70
2014,02,11,06,46,1.60
2014,02,11,06,47,1.50
2014,02,11,06,48,1.40
2014,02,11,06,49,1.30
2014,02,11,06,50,1.30
2014,02,11,06,51,1.30
2014,02,11,06,52,1.30
2014,02,11,06,53,1.30
2014,02,11,06,54,1.30
2014,02,11,06,55,1.30
2014,02,11,06,56,1.30
2014,02,11,06,57,1.30
2014,02,11,06,58,1.30
2014,02,11,06,59,1.30
2014,02,11,07,00,1.20
2014,02,11,07,01,1.20
2014,02,11,07,02,1.20
2014,02,11,07,03,1.20
2014,02,11,07,04,1.20
2014,02,11,07,05,1.10
2014,02,11,07,06,1.10
2014,02,11,07,07,1.10
2014,02,11,07,08,1.10
2014,02,11,07,09,1.10
2014,02,11,07,10,1.10
2014,02,11,07,11,1.10
2014,02,11,07,12,1.10
2014,02,11,07,13,1.10
2014,02,11,07,14,1.30
2014,02,11,07,15,1.60
2014,02,11,07,16,1.60
2014,02,11,07,17,1.60
2014,02,11,07,18,1.50
2014,02,11,07,19,1.40
2014,02,11,07,20,1.40
2014,02,11,07,21,1.50
2014,02,11,07,22,1.60
2014,02,11,07,23,1.70
2014,02,11,07,24,1.70
2014,02,11,07,25,1.80
2014,02,11,07,26,1.90
2014,02,11,07,27,2.20
2014,02,11,07,28,2.30
2014,02,11,07,29,2.40
2014,02,11,07,30,2.30
2014,02,11,07,31,2.20
2014,02,11,07,32,2.10
2014,02,11,07,33,1.90
2014,02,11,07,34,1.70
2014,02,11,07,35,1.60
2014,02,11,07,36,1.50
2014,02,11,07,37,1.50
2014,02,11,07,38,1.50
2014,02,11,07,39,1.50
2014,02,11,07,40,1.60
2014,02,11,07,41,1.70
2014,02,11,07,42,1.70
2014,02,11,07,43,1.70
2014,02,11,07,44,1.60
2014,02,11,07,45,1.60
2014,02,11,07,46,1.50
2014,02,11,07,47,1.40
2014,02,11,07,48,1.30
2014,02,11,07,49,1.30
2014,02,11,07,50,1.20
2014,02,11,07,51,1.20
2014,02,11,07,52,1.10
2014,02,11,07,53,1.20
2014,02,11,07,54,1.20
2014,02,11,07,55,1.20
2014,02,11,07,56,1.20
2014,02,11,07,57,1.20
2014,02,11,07,58,1.20
2014,02,11,07,59,1.20
2014,02,11,08,00,1.30
2014,02,11,08,01,1.30
2014,02,11,08,02,1.30
2014,02,11,08,03,1.30
2014,02,11,08,04,1.30
2014,02,11,08,05,1.30
2014,02,11,08,06,1.30
2014,02,11,08,07,1.40
2014,02,11,08,08,1.40
2014,02,11,08,09,1.40
2014,02,11,08,10,1.40
2014,02,11,08,11,1.40
2014,02,11,08,12,1.40
2014,02,11,08,13,1.40
2014,02,11,08,14,1.40
2014,02,11,08,15,1.40
2014,02,11,08,16,1.50
2014,02,11,08,17,1.60
2014,02,11,08,18,1.50
2014,02,11,08,19,1.50
2014,02,11,08,20,1.50
2014,02,11,08,21,1.50
2014,02,11,08,22,1.50
2014,02,11,08,23,1.60
2014,02,11,08,24,1.70
2014,02,11,08,25,1.80
2014,02,11,08,26,1.90
2014,02,11,08,27,1.90
2014,02,11,08,28,2.00
2014,02,11,08,29,2.10
2014,02,11,08,30,2.10
2014,02,11,08,31,2.20
2014,02,11,08,32,2.30
2014,02,11,08,33,2.30
2014,02,11,08,34,2.30
2014,02,11,08,35,2.30
2014,02,11,08,36,2.30
2014,02,11,08,37,2.40
2014,02,11,08,38,2.40
2014,02,11,08,39,2.50
2014,02,11,08,40,2.50
2014,02,11,08,41,2.60
2014,02,11,08,42,2.70
2014,02,11,08,43,2.70
2014,02,11,08,44,2.70
2014,02,11,08,45,2.70
2014,02,11,08,46,2.80
2014,02,11,08,47,2.90
2014,02,11,08,48,2.90
2014,02,11,08,49,2.90
2014,02,11,08,50,2.90
2014,02,11,08,51,2.90
2014,02,11,08,52,2.90
2014,02,11,08,53,3.00
2014,02,11,08,54,3.00
2014,02,11,08,55,2.90
2014,02,11,08,56,2.90
2014,02,11,08,57,2.80
2014,02,11,08,58,2.80
2014,02,11,08,59,2.80
2014,02,11,09,00,2.80
2014,02,11,09,01,2.90
2014,02,11,09,02,2.90
2014,02,11,09,03,2.90
2014,02,11,09,04,2.90
2014,02,11,09,05,2.90
2014,02,11,09,06,2.90
2014,02,11,09,07,3.00
2014,02,11,09,08,3.00
2014,02,11,09,09,3.10
2014,02,11,09,10,3.10
2014,02,11,09,11,3.20
2014,02,11,09,12,3.30
2014,02,11,09,13,3.40
2014,02,11,09,14,3.40
2014,02,11,09,15,3.50
2014,02,11,09,16,3.50
2014,02,11,09,17,3.50
2014,02,11,09,18,3.50
2014,02,11,09,19,3.50
2014,02,11,09,20,3.50
2014,02,11,09,21,3.50
2014,02,11,09,22,3.40
2014,02,11,09,23,3.40
2014,02,11,09,24,3.30
2014,02,11,09,25,3.30
2014,02,11,09,26,3.20
2014,02,11,09,27,3.20
2014,02,11,09,28,3.20
2014,02,11,09,29,3.20
2014,02,11,09,30,3.20
2014,02,11,09,31,3.20
2014,02,11,09,32,3.20
2014,02,11,09,33,3.20
2014,02,11,09,34,3.30
2014,02,11,09,35,3.30
2014,02,11,09,36,3.30
2014,02,11,09,37,3.30
2014,02,11,09,38,3.30
2014,02,11,09,39,3.30
2014,02,11,09,40,3.30
2014,02,11,09,41,3.30
2014,02,11,09,42,3.40
2014,02,11,09,43,3.40
2014,02,11,09,51,3.50
2014,02,11,09,52,3.50
2014,02,11,09,53,3.60
2014,02,11,09,54,3.60
2014,02,11,09,55,3.70
2014,02,11,09,56,3.70
2014,02,11,09,57,3.70
2014,02,11,09,58,3.80
2014,02,11,09,59,3.80
2014,02,11,10,00,3.80
2014,02,11,10,01,3.80
2014,02,11,10,02,3.80
2014,02,11,10,03,3.80
2014,02,11,10,04,3.90
2014,02,11,10,05,3.90
2014,02,11,10,06,3.90
2014,02,11,10,07,3.90
2014,02,11,10,08,3.90
2014,02,11,10,09,3.80
2014,02,11,10,10,3.80
2014,02,11,10,11,3.80
2014,02,11,10,12,3.80
2014,02,11,10,13,3.80
2014,02,11,10,14,3.80
2014,02,11,10,15,3.80
2014,02,11,10,16,3.80
2014,02,11,10,17,3.80
2014,02,11,10,18,3.80
2014,02,11,10,19,3.80
2014,02,11,10,20,3.80
2014,02,11,10,21,3.80
2014,02,11,10,22,3.80
2014,02,11,10,23,3.80
2014,02,11,10,24,3.70
2014,02,11,10,25,3.70
2014,02,11,10,26,3.70
2014,02,11,10,27,3.70
2014,02,11,10,28,3.70
2014,02,11,10,29,3.70
2014,02,11,10,30,3.70
2014,02,11,10,31,3.60
2014,02,11,10,32,3.60
2014,02,11,10,33,3.60
2014,02,11,10,34,3.60
2014,02,11,10,35,3.60
2014,02,11,10,36,3.60
2014,02,11,10,37,3.60
2014,02,11,10,38,3.60
2014,02,11,10,39,3.60
2014,02,11,10,40,3.60
2014,02,11,10,41,3.60
2014,02,11,10,42,3.60
2014,02,11,10,43,3.60
2014,02,11,10,44,3.50
2014,02,11,10,45,3.50
2014,02,11,10,46,3.50
2014,02,11,10,47,3.50
2014,02,11,10,48,3.50
2014,02,11,10,49,3.50
2014,02,11,10,50,3.50
2014,02,11,10,51,3.50
2014,02,11,10,52,3.50
2014,02,11,10,53,3.60
2014,02,11,10,54,3.60
2014,02,11,10,55,3.60
2014,02,11,10,56,3.60
2014,02,11,10,57,3.70
2014,02,11,10,58,3.70
2014,02,11,10,59,3.60
2014,02,11,11,00,3.60
2014,02,11,11,01,3.60
2014,02,11,11,02,3.60
2014,02,11,11,03,3.60
2014,02,11,11,04,3.60
2014,02,11,11,05,3.60
2014,02,11,11,06,3.60
2014,02,11,11,07,3.60
2014,02,11,11,08,3.60
2014,02,11,11,09,3.60
2014,02,11,11,10,3.60
2014,02,11,11,11,3.60
2014,02,11,11,12,3.60
2014,02,11,11,13,3.60
2014,02,11,11,14,3.60
2014,02,11,11,15,3.70
2014,02,11,11,16,3.70
2014,02,11,11,17,3.70
2014,02,11,11,18,3.70
2014,02,11,11,19,3.70
2014,02,11,11,20,3.70
2014,02,11,11,21,3.80
2014,02,11,11,22,3.80
2014,02,11,11,23,3.80
2014,02,11,11,24,3.80
2014,02,11,11,25,4.00
2014,02,11,11,26,4.10
2014,02,11,11,27,4.20
2014,02,11,11,28,4.30
2014,02,11,11,29,4.50
2014,02,11,11,30,4.60
2014,02,11,11,31,4.70
2014,02,11,11,32,4.90
2014,02,11,11,33,5.00
2014,02,11,11,34,5.20
2014,02,11,11,35,5.30
2014,02,11,11,36,5.40
2014,02,11,11,37,5.50
2014,02,11,11,38,5.50
2014,02,11,11,39,5.60
2014,02,11,11,40,5.70
2014,02,11,11,41,5.70
2014,02,11,11,42,5.80
2014,02,11,11,43,5.80
2014,02,11,11,44,5.90
2014,02,11,11,45,5.90
2014,02,11,11,46,6.00
2014,02,11,11,47,6.10
2014,02,11,11,48,6.10
2014,02,11,11,49,6.10
2014,02,11,11,50,6.20
2014,02,11,11,51,6.20
2014,02,11,11,52,6.20
2014,02,11,11,53,6.20
2014,02,11,11,54,6.20
2014,02,11,11,55,6.20
2014,02,11,11,56,6.20
2014,02,11,11,57,6.20
2014,02,11,11,58,6.10
2014,02,11,11,59,6.10
2014,02,11,12,00,6.10
2014,02,11,12,01,6.10
2014,02,11,12,02,6.10
2014,02,11,12,03,6.10
2014,02,11,12,04,6.00
2014,02,11,12,05,6.00
2014,02,11,12,06,6.00
2014,02,11,12,07,6.00
2014,02,11,12,08,5.90
2014,02,11,12,09,5.90
2014,02,11,12,10,5.90
2014,02,11,12,11,5.90
2014,02,11,12,12,5.90
2014,02,11,12,13,5.90
2014,02,11,12,14,5.90
2014,02,11,12,15,5.90
2014,02,11,12,16,5.80
2014,02,11,12,17,5.80
2014,02,11,12,18,5.80
2014,02,11,12,19,5.70
2014,02,11,12,20,5.70
2014,02,11,12,21,5.70
2014,02,11,12,22,5.70
2014,02,11,12,23,5.70
2014,02,11,12,24,5.70
2014,02,11,12,25,5.70
2014,02,11,12,26,5.70
2014,02,11,12,27,5.70
2014,02,11,12,28,5.70
2014,02,11,12,29,5.70
2014,02,11,12,30,5.70
2014,02,11,12,31,5.70
2014,02,11,12,32,5.70
2014,02,11,12,33,5.70
2014,02,11,12,34,5.90
2014,02,11,12,35,6.00
2014,02,11,12,36,6.10
2014,02,11,12,37,6.20
2014,02,11,12,38,6.30
2014,02,11,12,39,6.30
2014,02,11,12,40,6.40
2014,02,11,12,41,6.50
2014,02,11,12,42,6.60
2014,02,11,12,43,6.60
2014,02,11,12,44,6.70
2014,02,11,12,45,6.70
2014,02,11,12,46,6.70
2014,02,11,12,47,6.80
2014,02,11,12,48,6.80
2014,02,11,12,49,6.80
2014,02,11,12,50,6.80
2014,02,11,12,51,6.80
2014,02,11,12,52,6.80
2014,02,11,12,53,6.80
2014,02,11,12,54,6.80
2014,02,11,12,55,6.80
2014,02,11,12,56,6.80
2014,02,11,12,57,6.80
2014,02,11,12,58,6.80
2014,02,11,12,59,6.80
2014,02,11,13,00,6.80
2014,02,11,13,01,6.80
2014,02,11,13,02,6.80
2014,02,11,13,03,6.90
2014,02,11,13,04,6.90
2014,02,11,13,05,6.90
2014,02,11,13,06,6.90
2014,02,11,13,07,6.90
2014,02,11,13,08,6.90
2014,02,11,13,09,6.90
2014,02,11,13,10,6.90
2014,02,11,13,11,6.90
2014,02,11,13,12,6.90
2014,02,11,13,13,6.90
2014,02,11,13,14,6.90
2014,02,11,13,15,7.00
2014,02,11,13,16,6.90
2014,02,11,13,17,6.90
2014,02,11,13,18,6.90
2014,02,11,13,19,6.90
2014,02,11,13,20,6.90
2014,02,11,13,21,6.90
2014,02,11,13,22,6.90
2014,02,11,13,23,6.90
2014,02,11,13,24,6.90
2014,02,11,13,25,6.90
2014,02,11,13,26,6.90
2014,02,11,13,27,6.90
2014,02,11,13,28,6.90
2014,02,11,13,29,6.90
2014,02,11,13,30,6.90
2014,02,11,13,31,6.90
2014,02,11,13,32,6.90
2014,02,11,13,33,6.90
2014,02,11,13,34,6.90
2014,02,11,13,35,6.80
2014,02,11,13,36,6.80
2014,02,11,13,37,6.90
2014,02,11,13,38,6.90
2014,02,11,13,39,6.90
2014,02,11,13,40,6.90
2014,02,11,13,41,6.90
2014,02,11,13,42,6.90
2014,02,11,13,43,6.90
2014,02,11,13,44,6.90
2014,02,11,13,45,6.90
2014,02,11,13,46,6.90
2014,02,11,13,47,6.90
2014,02,11,13,48,6.90
2014,02,11,13,49,6.90
2014,02,11,13,50,6.90
2014,02,11,13,51,6.90
2014,02,11,13,52,6.90
2014,02,11,13,53,6.90
2014,02,11,13,54,6.90
2014,02,11,13,55,6.80
2014,02,11,13,56,6.80
2014,02,11,13,57,6.80
2014,02,11,13,58,6.80
2014,02,11,13,59,6.80
2014,02,11,14,00,6.80
2014,02,11,14,01,6.70
2014,02,11,14,02,6.70
2014,02,11,14,03,6.70
2014,02,11,14,04,6.70
2014,02,11,14,05,6.60
2014,02,11,14,06,6.60
2014,02,11,14,07,6.60
2014,02,11,14,08,6.60
2014,02,11,14,09,6.60
2014,02,11,14,10,6.60
2014,02,11,14,11,6.60
2014,02,11,14,12,6.50
2014,02,11,14,13,6.50
2014,02,11,14,14,6.50
2014,02,11,14,15,6.50
2014,02,11,14,16,6.50
2014,02,11,14,17,6.50
2014,02,11,14,18,6.50
2014,02,11,14,19,6.40
2014,02,11,14,20,6.40
2014,02,11,14,21,6.40
2014,02,11,14,22,6.50
2014,02,11,14,23,6.40
2014,02,11,14,24,6.40
2014,02,11,14,25,6.50
2014,02,11,14,26,6.50
2014,02,11,14,27,6.50
2014,02,11,14,28,6.40
2014,02,11,14,29,6.40
2014,02,11,14,30,6.40
2014,02,11,14,31,6.40
2014,02,11,14,32,6.40
2014,02,11,14,33,6.40
2014,02,11,14,34,6.30
2014,02,11,14,35,6.30
2014,02,11,14,36,6.30
2014,02,11,14,37,6.30
2014,02,11,14,38,6.30
2014,02,11,14,39,6.40
2014,02,11,14,40,6.40
2014,02,11,14,41,6.40
2014,02,11,14,42,6.40
2014,02,11,14,43,6.50
2014,02,11,14,44,6.50
2014,02,11,14,45,6.40
2014,02,11,14,46,6.40
2014,02,11,14,47,6.40
2014,02,11,14,48,6.40
2014,02,11,14,49,6.40
2014,02,11,14,50,6.40
2014,02,11,14,51,6.50
2014,02,11,14,52,6.50
2014,02,11,14,53,6.50
2014,02,11,14,54,6.50
2014,02,11,14,55,6.60
2014,02,11,14,56,6.60
2014,02,11,14,57,6.60
2014,02,11,14,58,6.60
2014,02,11,14,59,6.60
2014,02,11,15,00,6.60
2014,02,11,15,01,6.50
2014,02,11,15,02,6.50
2014,02,11,15,03,6.50
2014,02,11,15,04,6.50
2014,02,11,15,05,6.50
2014,02,11,15,06,6.40
2014,02,11,15,07,6.40
2014,02,11,15,08,6.30
2014,02,11,15,09,6.30
2014,02,11,15,10,6.20
2014,02,11,15,11,6.20
2014,02,11,15,12,6.20
2014,02,11,15,13,6.10
2014,02,11,15,14,6.10
2014,02,11,15,15,6.10
2014,02,11,15,16,6.00
2014,02,11,15,17,6.00
2014,02,11,15,18,5.90
2014,02,11,15,19,5.90
2014,02,11,15,20,5.90
2014,02,11,15,21,5.90
2014,02,11,15,22,5.90
2014,02,11,15,23,5.80
2014,02,11,15,24,5.80
2014,02,11,15,25,5.80
2014,02,11,15,26,5.80
2014,02,11,15,27,5.80
2014,02,11,15,28,5.70
2014,02,11,15,29,5.70
2014,02,11,15,30,5.70
2014,02,11,15,31,5.70
2014,02,11,15,32,5.70
2014,02,11,15,33,5.70
2014,02,11,15,34,5.70
2014,02,11,15,35,5.70
2014,02,11,15,36,5.60
2014,02,11,15,37,5.60
2014,02,11,15,38,5.60
2014,02,11,15,39,5.60
2014,02,11,15,40,5.60
2014,02,11,15,41,5.60
2014,02,11,15,42,5.60
2014,02,11,15,43,5.60
2014,02,11,15,44,5.60
2014,02,11,15,45,5.60
2014,02,11,15,46,5.60
2014,02,11,15,47,5.60
2014,02,11,15,48,5.60
2014,02,11,15,49,5.60
2014,02,11,15,50,5.60
2014,02,11,15,51,5.60
2014,02,11,15,52,5.70
2014,02,11,15,53,5.70
2014,02,11,15,54,5.60
2014,02,11,15,55,5.70
2014,02,11,15,56,5.60
2014,02,11,15,57,5.60
2014,02,11,15,58,5.70
2014,02,11,15,59,5.70
2014,02,11,16,00,5.70
2014,02,11,16,01,5.70
2014,02,11,16,02,5.70
2014,02,11,16,03,5.70
2014,02,11,16,04,5.70
2014,02,11,16,05,5.70
2014,02,11,16,06,5.70
2014,02,11,16,07,5.70
2014,02,11,16,08,5.70
2014,02,11,16,09,5.70
2014,02,11,16,10,5.70
2014,02,11,16,11,5.70
2014,02,11,16,12,5.70
2014,02,11,16,13,5.70
2014,02,11,16,14,5.70
2014,02,11,16,15,5.70
2014,02,11,16,16,5.70
2014,02,11,16,17,5.70
2014,02,11,16,18,5.70
2014,02,11,16,19,5.70
2014,02,11,16,20,5.70
2014,02,11,16,21,5.70
2014,02,11,16,22,5.70
2014,02,11,16,23,5.60
2014,02,11,16,24,5.60
2014,02,11,16,25,5.60
2014,02,11,16,26,5.60
2014,02,11,16,27,5.60
2014,02,11,16,28,5.60
2014,02,11,16,29,5.60
2014,02,11,16,30,5.60
2014,02,11,16,31,5.60
2014,02,11,16,32,5.60
2014,02,11,16,33,5.60
2014,02,11,16,34,5.60
2014,02,11,16,35,5.60
2014,02,11,16,36,5.60
2014,02,11,16,37,5.60
2014,02,11,16,38,5.60
2014,02,11,16,39,5.50
2014,02,11,16,40,5.50
2014,02,11,16,41,5.50
2014,02,11,16,42,5.50
2014,02,11,16,43,5.50
2014,02,11,16,44,5.50
2014,02,11,16,45,5.50
2014,02,11,16,46,5.40
2014,02,11,16,47,5.50
2014,02,11,16,48,5.40
2014,02,11,16,49,5.40
2014,02,11,16,50,5.40
2014,02,11,16,51,5.40
2014,02,11,16,52,5.50
2014,02,11,16,53,5.40
2014,02,11,16,54,5.40
2014,02,11,16,55,5.40
2014,02,11,16,56,5.40
2014,02,11,16,57,5.40
2014,02,11,16,58,5.40
2014,02,11,16,59,5.40
2014,02,11,17,00,5.40
2014,02,11,17,01,5.40
2014,02,11,17,02,5.40
2014,02,11,17,03,5.40
2014,02,11,17,04,5.30
2014,02,11,17,05,5.30
2014,02,11,17,06,5.30
2014,02,11,17,07,5.30
2014,02,11,17,08,5.30
2014,02,11,17,09,5.30
2014,02,11,17,10,5.30
2014,02,11,17,11,5.30
2014,02,11,17,12,5.30
2014,02,11,17,13,5.30
2014,02,11,17,14,5.30
2014,02,11,17,15,5.20
2014,02,11,17,16,5.20
2014,02,11,17,17,5.20
2014,02,11,17,18,5.20
2014,02,11,17,19,5.30
2014,02,11,17,20,5.30
2014,02,11,17,21,5.30
2014,02,11,17,22,5.20
2014,02,11,17,23,5.20
2014,02,11,17,24,5.30
2014,02,11,17,25,5.30
2014,02,11,17,26,5.30
2014,02,11,17,27,5.30
2014,02,11,17,28,5.20
2014,02,11,17,29,5.20
2014,02,11,17,30,5.20
2014,02,11,17,31,5.20
2014,02,11,17,32,5.20
2014,02,11,17,33,5.20
2014,02,11,17,34,5.20
2014,02,11,17,35,5.20
2014,02,11,17,36,5.20
2014,02,11,17,37,5.20
2014,02,11,17,38,5.20
2014,02,11,17,39,5.20
2014,02,11,17,40,5.20
2014,02,11,17,41,5.20
2014,02,11,17,42,5.20
2014,02,11,17,43,5.20
2014,02,11,17,44,5.20
2014,02,11,17,45,5.20
2014,02,11,17,46,5.10
2014,02,11,17,47,5.20
2014,02,11,17,48,5.20
2014,02,11,17,49,5.20
2014,02,11,17,50,5.20
2014,02,11,17,51,5.20
2014,02,11,17,52,5.10
2014,02,11,17,53,5.20
2014,02,11,17,54,5.20
2014,02,11,17,55,5.20
2014,02,11,17,56,5.20
2014,02,11,17,57,5.20
2014,02,11,17,58,5.20
2014,02,11,17,59,5.20
2014,02,11,18,00,5.20
2014,02,11,18,01,5.20
2014,02,11,18,02,5.20
2014,02,11,18,03,5.20
2014,02,11,18,04,5.20
2014,02,11,18,05,5.20
2014,02,11,18,06,5.20
2014,02,11,18,07,5.20
2014,02,11,18,08,5.20
2014,02,11,18,09,5.20
2014,02,11,18,10,5.20
2014,02,11,18,11,5.20
2014,02,11,18,12,5.20
2014,02,11,18,13,5.20